THORAD AGENA D DEB, 4821

Orbit data source: Space-Track

THORAD AGENA D DEB, 4821 is space debris in SSO originally from a launch on Wed, 08 Apr 1970 UTC launched from the Air Force Western Test Range (AFWTR). Debris objects in space refer to the collection of defunct objects orbiting the Earth. Examples of debris include non-operational satellites, rocket bodies, and fragments generated from explosions, collisions, or faulty payload assembly.

Loading next visibility...
Identifier
4821, 1970-025EC
Orbit
SSO
Country
Flag of USUS
Related business
Manufacturer
Unknown
Mission
Spacecraft
Bus & Motor
Unknown
Mass
Unknown
Launch date (UTC)
1970-04-08 (56 years ago)
Launch vehicle
Unknown
Launch site
Air Force Western Test Range (AFWTR)
Object type
Payload
Rocket body
Debris
Shape & HBR
Unknown shape, 0.1 m
Radar Cross Section
Small (<0.1 m²)

Expand to show TLE details & history
Last TLE update: 1 day ago

TLE from 1 day ago
0 THORAD AGENA D DEB
1 04821U 70025EC  25291.84042281  .00000365  00000-0  56007-3 0  9992
2 04821 100.0483 325.6091 0010566 107.6302  70.9873 13.59123740743425
Epoch: 2025-10-18T20:10Z
TLE epoch observation values (Epoch: 2025-10-18T20:10:12.530Z)
Latitude
1.14329°
Longitude
175.69279°
Altitude
1,038.977 km
Speed
7.334 km/s
True Right ascension
09h 43m 14s
True Declination
1° 08' 12"
Sunlit
Object was in daylight at epoch
Visualization orbit readout
Latitude
Unknown
Longitude
Unknown
Altitude
Unknown
Speed
Unknown
Apparent Right ascension
Unknown
Apparent Declination
Unknown
Sunlit
N/A
Visualization observer readout
Local Sidereal Time
15:33:43
Azimuth
Unknown
Elevation
Unknown
Doppler factor
Unknown
Orbital elements
Apogee altitude
1,044.02 km
Perigee altitude
1,028.352 km
Semi-major axis
7,414.323 km
Eccentricity
0.00106
Inclination
100.0483°
RAAN
325.6091°
Arg. of periapsis
107.6302°
True anomaly
71.10182°
Mean anomaly
70.9873°
Eccentric anomaly
71.04456°
Mean motion
3.39966 °/min
Orbital period
105.89 mins
BSTAR
0.00056007
Loading maneuver chart data...
Computing Atmospheric mass density...

Documentation

Showing up to 5 results
|